FENGYUN 1C DEB

Satellite information

Favourite Embed

Satellite Type and Status

DEBRISIN ORBIT

Key statistics

Satellite FENGYUN 1C DEB at a glance.

Uptime

9658

Days in orbit

Revolutions

≈ 13.9

Per day

Orbit

SSO

Sun Synchronous Orbit

Inclination

99.1

Latest

Satellite identification and parameters

Extended collection of information and parameters for FENGYUN 1C DEB.

Object identification

Identified? True

Debris? True

Object name: FENGYUN 1C DEB

International designator: 1999-025CQN

Object number (NORAD): 32096

Object ID (CCSDS): 32096

Country: PEOPLES REPUBLIC OF CHINA (PRC)

Current information (Y/N): Y

RCS size: SMALL

Orbital parameters

Period: 103.603 minutes

Inclination: 99.0821 deg

SMA: 7307.064 km

Apoapsis: 1025.26 km

Periapsis: 832.598 km

RAAN: 316.9601 deg

Eccentricy: 0.0131833

Argument of periapsis: 302.7814 deg

Mean anomaly: 56.07 deg

Mean motion: 13.89915452 rev/day

Mean motion (dot): 0.00001351 rev/day2

B* drag term: 0.0010569783 1/REarth

Two-line elements (TLE)

Creation date: Oct. 13, 2025, 6:48 p.m.

Reference frame: TEME

Reference center: EARTH

Epoch: Oct. 13, 2025, 12:49 p.m. UTC

TLE line 0: 0 FENGYUN 1C DEB

TLE line 1: 1 32096U 99025CQN 25286.53440887 .00001351 00000-0 10570-2 0 9992

TLE line 2: 2 32096 99.0821 316.9601 0131833 302.7814 56.0700 13.89915452920254

Live tracking on map

Real-time ground track for satellite FENGYUN 1C DEB.

In-orbit conjunctions

A list of the most updated potential collisions computed for object FENGYUN 1C DEB.

Target Orbit TCA Probability of collision Miss distance Type
SL-16 DEB LEO 2024-11-14 00:43:51 0.0001154136 538.0 (m) DEBRIS
SL-14 DEB LEO 2024-07-13 12:23:24 0.0003877845 47.0 (m) DEBRIS

Associated space launch

Chinese polar orbiting meteorological satellite

FENGYUN 1C DEB was lifted into orbit during the mission ‘Long March 4B | Feng Yun 1C’, on board a Long March 4B space rocket.

The launch took place on May 10, 1999, 1:33 a.m. from Launch Complex 7.

For more information about the launch, click the button.

Launch to space Long March 4B | Feng Yun 1C
Long March 4B | Feng Yun 1C

Agency: N/A

Status: Launch Successful

Launch date: May 10, 1999, 1:33 a.m. UTC

Rocket: Long March 4B

Launch pad: Launch Complex 7

Location: Taiyuan Satellite Launch Center, People's Republic of China

...

Latest news about this satellite

There are no fresh news available about this satellite. Check back as we update our databases every day.


Newsletter sign-up

Weekly statistics, charts and insights to help you stay on top of the space industry.